1494327601.12,40561,14.25,72634.0,-1.59,-3.03,-2.83,0,*52
1494327602.32,40562,14.25,72634.3,-1.59,-3.03,-2.91,0,*52
1494327603.51,40563,14.25,72632.0,-1.59,-3.03,-2.91,0,*53
1494327604.74,40564,14.19,72632.3,-1.61,-3.11,-2.87,0,*5B
1494327605.94,40565,14.19,72630.5,-1.63,-3.11,-2.99,0,*57
1494327607.15,40566,14.19,72630.5,-1.63,-3.11,-2.99,0,*54
1494327608.37,40567,14.25,72634.0,-1.61,-3.11,-2.87,0,*58
1494327609.58,40568,14.19,72632.8,-1.63,-3.11,-2.95,0,*56
1494327610.78,40569,14.25,72636.8,-1.63,-3.11,-2.95,0,*57
1494327611.98,40570,14.25,72634.3,-1.63,-3.11,-2.87,0,*5C
1494327613.18,40571,14.19,72632.8,-1.63,-3.19,-2.95,0,*56
1494327614.38,40572,14.25,72632.3,-1.63,-3.11,-2.87,0,*5E
1494327615.59,40573,14.25,72636.0,-1.63,-3.11,-2.95,0,*5C
1494327616.81,40574,14.25,72632.5,-1.65,-3.15,-2.99,0,*55
1494327618.04,40575,14.25,72636.3,-1.65,-3.15,-2.99,0,*54
1494327619.24,40576,14.25,72636.0,-1.67,-3.19,-3.03,0,*5B
1494327620.47,40577,14.19,72634.5,-1.65,-3.15,-2.99,0,*56
1494327621.67,40578,14.25,72636.5,-1.67,-3.15,-2.91,0,*53
1494327622.9,40579,14.25,72636.3,-1.65,-3.15,-2.99,0,*58
1494327624.12,40580,14.25,72634.3,-1.65,-3.15,-2.99,0,*5E
1494327625.32,40581,14.25,72636.5,-1.67,-3.19,-3.03,0,*53
1494327626.52,40582,14.19,72634.8,-1.67,-3.19,-3.03,0,*50
1494327627.72,40583,14.25,72640.0,-1.67,-3.19,-3.03,0,*51
1494327628.94,40584,14.25,72638.3,-1.65,-3.15,-2.91,0,*52
1494327630.17,40585,14.25,72636.3,-1.69,-3.19,-2.95,0,*57
1494327631.37,40586,14.25,72636.8,-1.67,-3.19,-2.95,0,*5A
1494327632.57,40587,14.25,72636.3,-1.67,-3.19,-3.03,0,*55
1494327633.77,40588,14.25,72638.0,-1.67,-3.19,-3.03,0,*5A
1494327634.99,40589,14.25,72636.3,-1.69,-3.19,-2.95,0,*5B
1494327636.22,40590,14.25,72636.3,-1.69,-3.19,-2.95,0,*53
1494327637.45,40591,14.19,72632.3,-1.69,-3.19,-2.95,0,*52
1494327638.64,40592,14.25,72638.5,-1.71,-3.23,-2.99,0,*5D
1494327639.84,40593,14.25,72636.3,-1.71,-3.23,-2.99,0,*5C
1494327641.07,40594,14.25,72636.5,-1.69,-3.15,-2.95,0,*5B
1494327642.28,40595,14.25,72638.5,-1.71,-3.19,-2.99,0,*53
1494327643.48,40596,14.25,72634.5,-1.71,-3.19,-2.99,0,*50
1494327644.68,40597,14.25,72634.3,-1.71,-3.19,-2.99,0,*51
1494327645.88,40598,14.25,72634.5,-1.71,-3.19,-2.99,0,*5E
1494327647.1,40599,14.25,72636.5,-1.73,-3.19,-2.99,0,*5D
1494327648.31,40600,14.25,72636.5,-1.71,-3.19,-2.95,0,*50
1494327649.51,40601,14.25,72632.5,-1.71,-3.19,-3.07,0,*5B
1494327650.71,40602,14.25,72632.5,-1.71,-3.19,-2.99,0,*5E
1494327651.91,40603,14.25,72632.5,-1.75,-3.27,-3.03,0,*54
1494327653.13,40604,14.25,72634.0,-1.73,-3.19,-3.07,0,*5C
1494327654.35,40605,14.25,72634.3,-1.73,-3.11,-3.07,0,*55
1494327655.57,40606,14.25,72632.0,-1.73,-3.19,-2.99,0,*58
1494327656.79,40607,14.25,72638.0,-1.73,-3.19,-3.07,0,*5F
1494327658.01,40608,14.25,72636.0,-1.73,-3.19,-3.07,0,*50
1494327659.23,40609,14.25,72634.8,-1.73,-3.19,-3.07,0,*51
1494327660.45,40610,14.25,72634.5,-1.73,-3.23,-2.99,0,*56
1494327661.65,40611,14.25,72636.0,-1.75,-3.27,-3.11,0,*54
1494327662.86,40612,14.25,72634.3,-1.75,-3.27,-3.11,0,*57
1494327664.06,40613,14.25,72638.3,-1.75,-3.27,-3.11,0,*56
1494327665.26,40614,14.25,72636.0,-1.75,-3.35,-3.11,0,*52
1494327666.46,40615,14.25,72634.3,-1.75,-3.35,-3.11,0,*53
1494327667.69,40616,14.25,72638.3,-1.77,-3.27,-3.11,0,*51
1494327668.92,40617,14.25,72636.5,-1.77,-3.35,-3.11,0,*53
1494327670.11,40618,14.25,72632.8,-1.81,-3.35,-3.19,0,*5D
1494327671.34,40619,14.25,72636.8,-1.77,-3.27,-3.11,0,*5E
1494327672.57,40620,14.25,72636.8,-1.77,-3.35,-3.03,0,*54
1494327673.8,40621,14.25,72634.3,-1.77,-3.27,-3.11,0,*55
1494327675.03,40622,14.25,72636.5,-1.77,-3.27,-3.11,0,*56
1494327676.25,40623,14.25,72638.0,-1.77,-3.27,-3.11,0,*57
1494327677.48,40624,14.25,72634.0,-1.77,-3.35,-3.11,0,*53
1494327678.68,40625,14.25,72638.0,-1.81,-3.27,-3.11,0,*58
1494327679.91,40626,14.25,72632.0,-1.77,-3.27,-3.11,0,*52
1494327681.1,40627,14.25,72636.0,-1.81,-3.35,-3.19,0,*51
1494327682.29,40628,14.25,72634.8,-1.81,-3.35,-3.23,0,*57
1494327683.5,40629,14.25,72636.8,-1.81,-3.43,-3.23,0,*57
1494327684.69,40630,14.25,72634.3,-1.81,-3.35,-3.19,0,*57
1494327685.9,40631,14.25,72632.5,-1.81,-3.43,-3.23,0,*5E
1494327687.12,40632,14.25,72632.8,-1.83,-3.35,-3.23,0,*5E
1494327688.36,40633,14.25,72632.8,-1.83,-3.43,-3.23,0,*5E
1494327689.61,40634,14.25,72634.8,-1.83,-3.51,-3.31,0,*59
1494327690.86,40635,14.25,72636.3,-1.83,-3.47,-3.31,0,*5F
1494327692.1,40636,14.25,72632.0,-1.83,-3.47,-3.31,0,*5C
1494327693.35,40637,14.25,72636.0,-1.83,-3.47,-3.31,0,*5D
1494327694.57,40638,14.25,72636.0,-1.85,-3.51,-3.35,0,*57
1494327695.79,40639,14.25,72630.8,-1.85,-3.51,-3.27,0,*55
1494327697.01,40640,14.25,72634.3,-1.85,-3.51,-3.35,0,*58
1494327698.23,40641,14.25,72632.8,-1.85,-3.51,-3.35,0,*59
1494327699.45,40642,14.25,72628.5,-1.85,-3.55,-3.35,0,*5E
1494327700.66,40643,14.25,72630.8,-1.85,-3.51,-3.35,0,*5B
1494327701.91,40644,14.25,72632.3,-1.87,-3.51,-3.35,0,*5E
1494327703.13,40645,14.25,72634.0,-1.85,-3.51,-3.35,0,*5D
1494327704.35,40646,14.25,72634.3,-1.85,-3.51,-3.35,0,*5E
1494327705.59,40647,14.25,72634.0,-1.87,-3.47,-3.35,0,*5A
1494327706.81,40648,14.25,72630.8,-1.89,-3.51,-3.31,0,*58
1494327708.02,40649,14.25,72632.0,-1.87,-3.39,-3.23,0,*5A
1494327709.24,40650,14.25,72632.8,-1.87,-3.39,-3.27,0,*56
1494327710.46,40651,14.25,72632.5,-1.89,-3.43,-3.27,0,*54
1494327711.68,40652,14.25,72632.3,-1.89,-3.43,-3.39,0,*58
1494327712.93,40653,14.25,72630.8,-1.87,-3.47,-3.27,0,*5C
1494327714.15,40654,14.25,72634.8,-1.89,-3.51,-3.31,0,*55
1494327715.37,40655,14.25,72634.3,-1.89,-3.43,-3.27,0,*50
1494327716.59,40656,14.25,72632.0,-1.89,-3.43,-3.27,0,*53
1494327717.78,40657,14.25,72630.8,-1.89,-3.39,-3.23,0,*5B
1494327719.0,40658,14.25,72634.3,-1.89,-3.43,-3.27,0,*5D
1494327720.21,40659,14.25,72628.3,-1.87,-3.39,-3.15,0,*5E
1494327721.43,40660,14.25,72632.0,-1.87,-3.35,-3.15,0,*58
1494327722.63,40661,14.25,72632.5,-1.89,-3.39,-3.07,0,*58
1494327723.82,40662,14.25,72634.0,-1.89,-3.31,-3.07,0,*53
1494327725.02,40663,14.25,72632.0,-1.89,-3.31,-3.03,0,*56
1494327726.22,40664,14.25,72628.5,-1.89,-3.27,-3.03,0,*56
1494327727.41,40665,14.25,72632.0,-1.89,-3.19,-2.95,0,*54
1494327728.63,40666,14.25,72632.0,-1.87,-3.03,-2.87,0,*51
1494327729.84,40667,14.25,72636.8,-1.87,-3.03,-2.79,0,*51
1494327731.03,40668,14.25,72634.5,-1.89,-3.03,-2.79,0,*50
1494327732.23,40669,14.25,72634.5,-1.89,-2.95,-2.79,0,*5F
1494327733.47,40670,14.25,72636.8,-1.87,-2.91,-2.67,0,*52
1494327734.71,40671,14.25,72632.8,-1.87,-2.91,-2.67,0,*53
1494327735.96,40672,14.25,72634.3,-1.87,-2.91,-2.67,0,*50
1494327737.2,40673,14.25,72632.8,-1.87,-2.79,-2.67,0,*57
1494327738.44,40674,14.25,72632.8,-1.87,-2.79,-2.67,0,*50
1494327739.72,40675,14.25,72634.5,-1.87,-2.75,-2.63,0,*59
1494327740.98,40676,14.25,72632.3,-1.87,-2.75,-2.59,0,*53
1494327742.22,40677,14.25,72634.0,-1.85,-2.75,-2.59,0,*50
1494327743.47,40678,14.25,72634.8,-1.85,-2.75,-2.59,0,*5F
1494327744.71,40679,14.25,72634.0,-1.85,-2.75,-2.51,0,*56
1494327746.0,40680,14.25,72634.0,-1.83,-2.63,-2.47,0,*56
1494327747.24,40681,14.25,72634.3,-1.83,-2.63,-2.43,0,*53
1494327748.52,40682,14.25,72632.5,-1.83,-2.63,-2.47,0,*54
1494327749.77,40683,14.25,72634.5,-1.85,-2.63,-2.47,0,*53
1494327751.02,40684,14.25,72634.8,-1.83,-2.59,-2.43,0,*5F
1494327752.26,40685,14.25,72634.5,-1.83,-2.59,-2.43,0,*5E
1494327753.5,40686,14.25,72632.0,-1.83,-2.59,-2.35,0,*5C
1494327754.73,40687,14.25,72638.3,-1.81,-2.55,-2.31,0,*57
1494327755.98,40688,14.25,72632.5,-1.77,-2.47,-2.27,0,*55
1494327757.23,40689,14.25,72634.8,-1.77,-2.47,-2.27,0,*54
1494327758.42,40690,14.25,72634.3,-1.81,-2.43,-2.31,0,*56
1494327759.62,40691,14.25,72634.3,-1.81,-2.43,-2.31,0,*57
1494327760.85,40692,14.25,72632.8,-1.77,-2.35,-2.23,0,*5F
1494327762.07,40693,14.25,72634.8,-1.77,-2.35,-2.15,0,*5B
1494327763.32,40694,14.25,72632.0,-1.77,-2.27,-2.11,0,*5B
1494327764.52,40695,14.25,72634.8,-1.75,-2.27,-2.15,0,*5C
1494327765.71,40696,14.25,72630.8,-1.75,-2.23,-2.15,0,*5B
1494327766.94,40697,14.25,72634.5,-1.75,-2.23,-2.03,0,*5D
1494327768.16,40698,14.25,72632.0,-1.75,-2.23,-2.03,0,*52
1494327769.39,40699,14.25,72630.8,-1.75,-2.23,-2.03,0,*53
1494327770.62,40700,14.25,72632.8,-1.73,-2.19,-1.95,0,*51
1494327771.9,40701,14.25,72632.3,-1.73,-2.11,-1.87,0,*5B
1494327773.17,40702,14.25,72634.3,-1.73,-2.11,-1.95,0,*5B
1494327774.43,40703,14.25,72634.0,-1.73,-2.11,-1.95,0,*5A
1494327775.7,40704,14.25,72632.8,-1.73,-2.11,-1.95,0,*5D
1494327776.97,40705,14.25,72630.5,-1.73,-2.11,-1.95,0,*5C
1494327778.21,40706,14.25,72632.8,-1.69,-2.19,-1.95,0,*5C
1494327779.43,40707,14.25,72638.3,-1.71,-2.23,-1.95,0,*5D
1494327780.68,40708,14.25,72632.0,-1.69,-2.31,-2.07,0,*50
1494327781.88,40709,14.25,72632.3,-1.71,-2.35,-2.23,0,*5A
1494327783.1,40710,14.25,72630.0,-1.69,-2.43,-2.19,0,*53
1494327784.33,40711,14.25,72628.0,-1.71,-2.59,-2.35,0,*5E
1494327785.57,40712,14.25,72634.8,-1.69,-2.55,-2.27,0,*5B
1494327786.82,40713,14.25,72626.0,-1.69,-2.55,-2.39,0,*55
1494327788.04,40714,14.25,72626.0,-1.67,-2.55,-2.39,0,*5C
1494327789.27,40715,14.25,72626.5,-1.67,-2.55,-2.39,0,*5D
1494327790.49,40716,14.25,72626.0,-1.67,-2.59,-2.39,0,*52
1494327791.71,40717,14.25,72628.0,-1.67,-2.59,-2.43,0,*5E
1494327792.93,40718,14.25,72630.5,-1.67,-2.59,-2.43,0,*51
1494327794.14,40719,14.25,72632.0,-1.67,-2.67,-2.43,0,*5D
1494327795.4,40720,14.25,72630.5,-1.67,-2.67,-2.47,0,*53
1494327796.67,40721,14.25,72632.3,-1.69,-2.67,-2.47,0,*5C
1494327797.92,40722,14.25,72630.5,-1.67,-2.71,-2.55,0,*55
1494327799.18,40723,14.25,72632.5,-1.67,-2.71,-2.55,0,*54
1494327800.42,40724,14.25,72632.0,-1.69,-2.79,-2.55,0,*55
1494327801.68,40725,14.25,72632.5,-1.69,-2.79,-2.67,0,*55
1494327802.92,40726,14.25,72630.8,-1.69,-2.83,-2.67,0,*53
1494327804.17,40727,14.25,72630.5,-1.69,-2.91,-2.71,0,*56
1494327805.4,40728,14.25,72634.3,-1.69,-2.95,-2.79,0,*55
1494327806.62,40729,14.25,72628.8,-1.69,-3.03,-2.79,0,*5A
1494327807.84,40730,14.25,72632.3,-1.69,-2.95,-2.79,0,*5C
1494327809.04,40731,14.25,72630.5,-1.71,-3.11,-2.95,0,*5B
1494327810.26,40732,14.25,72634.0,-1.69,-3.07,-2.91,0,*52
1494327811.47,40733,14.31,72638.3,-1.71,-3.19,-2.95,0,*51
1494327812.68,40734,14.25,72636.0,-1.69,-3.07,-2.91,0,*54
1494327813.89,40735,14.25,72632.0,-1.71,-3.19,-2.95,0,*57
1494327815.09,40736,14.25,72634.0,-1.71,-3.19,-2.99,0,*58
1494327816.31,40737,14.25,72632.8,-1.73,-3.19,-2.99,0,*5B
1494327817.54,40738,14.25,72632.8,-1.73,-3.19,-2.99,0,*54
1494327818.76,40739,14.25,72634.8,-1.73,-3.19,-2.99,0,*55
1494327819.98,40740,14.25,72636.0,-1.73,-3.19,-2.95,0,*57
1494327821.2,40741,14.25,72634.5,-1.73,-3.19,-3.07,0,*5C
1494327822.4,40742,14.25,72634.0,-1.75,-3.23,-3.03,0,*54
1494327823.59,40743,14.25,72634.3,-1.75,-3.23,-3.03,0,*55
1494327824.81,40744,14.25,72634.5,-1.73,-3.19,-3.07,0,*59
1494327826.01,40745,14.25,72634.3,-1.75,-3.27,-3.11,0,*54
1494327827.21,40746,14.25,72632.8,-1.75,-3.23,-3.03,0,*50
1494327828.4,40747,14.25,72632.3,-1.75,-3.23,-3.11,0,*52
1494327829.63,40748,14.25,72636.5,-1.77,-3.23,-3.11,0,*5F
1494327830.82,40749,14.25,72632.0,-1.81,-3.31,-3.19,0,*5C
1494327832.01,40750,14.25,72634.5,-1.75,-3.23,-3.11,0,*54
1494327833.2,40751,14.25,72634.3,-1.81,-3.31,-3.19,0,*55
1494327834.39,40752,14.25,72636.8,-1.81,-3.31,-3.23,0,*5F
1494327835.58,40753,14.25,72638.0,-1.81,-3.31,-3.23,0,*5E
1494327836.79,40754,14.25,72632.8,-1.81,-3.43,-3.23,0,*5C
1494327838.0,40755,14.25,72634.8,-1.81,-3.43,-3.23,0,*5D
1494327839.22,40756,14.25,72634.8,-1.83,-3.35,-3.23,0,*5D
1494327840.44,40757,14.25,72634.8,-1.83,-3.35,-3.23,0,*5C
1494327841.64,40758,14.25,72636.3,-1.85,-3.39,-3.27,0,*5D
1494327842.86,40759,14.25,72632.8,-1.85,-3.47,-3.27,0,*55
1494327844.08,40760,14.25,72634.8,-1.85,-3.47,-3.35,0,*5C
1494327845.3,40761,14.25,72634.0,-1.83,-3.35,-3.19,0,*50
1494327846.5,40762,14.25,72634.0,-1.85,-3.39,-3.35,0,*57
1494327847.7,40763,14.25,72636.5,-1.85,-3.39,-3.27,0,*55
1494327848.89,40764,14.25,72636.5,-1.85,-3.39,-3.27,0,*52
1494327850.09,40765,14.25,72634.0,-1.85,-3.39,-3.27,0,*53
1494327851.34,40766,14.25,72638.3,-1.87,-3.47,-3.35,0,*58
1494327852.56,40767,14.25,72634.8,-1.87,-3.39,-3.27,0,*53
1494327853.8,40768,14.25,72634.8,-1.87,-3.47,-3.27,0,*55
1494327855.02,40769,14.25,72636.3,-1.89,-3.43,-3.31,0,*59
1494327856.27,40770,14.25,72636.5,-1.87,-3.47,-3.27,0,*5C
1494327857.49,40771,14.25,72634.3,-1.89,-3.43,-3.27,0,*57
1494327858.71,40772,14.25,72638.3,-1.89,-3.51,-3.27,0,*57
1494327859.93,40773,14.25,72636.3,-1.89,-3.51,-3.31,0,*51
1494327861.15,40774,14.25,72636.3,-1.89,-3.51,-3.31,0,*56
1494327862.36,40775,14.25,72634.0,-1.89,-3.43,-3.31,0,*54
1494327863.58,40776,14.25,72632.5,-1.89,-3.43,-3.27,0,*50
1494327864.8,40777,14.25,72638.8,-1.89,-3.43,-3.31,0,*56
1494327866.01,40778,14.25,72632.8,-1.89,-3.43,-3.19,0,*53
1494327867.26,40779,14.25,72636.0,-1.91,-3.47,-3.31,0,*55
1494327868.5,40780,14.25,72638.5,-1.91,-3.47,-3.31,0,*53
1494327869.71,40781,14.25,72636.3,-1.93,-3.47,-3.23,0,*53
1494327870.95,40782,14.25,72634.3,-1.91,-3.47,-3.23,0,*52
1494327872.19,40783,14.25,72636.0,-1.91,-3.43,-3.23,0,*57
1494327873.43,40784,14.25,72634.5,-1.91,-3.43,-3.23,0,*50
1494327874.65,40785,14.25,72636.3,-1.91,-3.35,-3.19,0,*59
1494327875.87,40786,14.25,72638.8,-1.91,-3.35,-3.11,0,*52
1494327877.07,40787,14.25,72632.3,-1.89,-3.27,-3.07,0,*5E
1494327878.26,40788,14.25,72636.5,-1.93,-3.35,-3.11,0,*5E
1494327879.46,40789,14.25,72636.8,-1.93,-3.35,-3.11,0,*5F
1494327880.65,40790,14.25,72634.3,-1.93,-3.35,-3.19,0,*5F
1494327881.85,40791,14.25,72638.5,-1.93,-3.31,-3.11,0,*52
1494327883.09,40792,14.25,72632.5,-1.91,-3.43,-3.11,0,*56
1494327884.29,40793,14.25,72634.3,-1.93,-3.31,-3.11,0,*50
1494327885.51,40794,14.25,72632.8,-1.91,-3.35,-3.11,0,*51
1494327886.73,40795,14.25,72632.8,-1.91,-3.35,-3.19,0,*58
1494327887.95,40796,14.25,72632.0,-1.93,-3.43,-3.11,0,*50
1494327889.16,40797,14.25,72636.3,-1.91,-3.35,-3.23,0,*53
1494327890.36,40798,14.25,72634.0,-1.93,-3.35,-3.11,0,*5F
1494327891.55,40799,14.25,72632.5,-1.93,-3.35,-3.11,0,*5E
1494327892.77,40800,14.25,72632.5,-1.93,-3.43,-3.19,0,*58
1494327893.98,40801,14.25,72634.3,-1.93,-3.43,-3.19,0,*59
1494327895.21,40802,14.25,72632.8,-1.91,-3.35,-3.11,0,*51
1494327896.4,40803,14.25,72634.5,-1.93,-3.35,-3.19,0,*5A
1494327897.61,40804,14.25,72634.5,-1.93,-3.43,-3.11,0,*54
1494327898.8,40805,14.25,72636.8,-1.93,-3.23,-3.19,0,*5B
1494327899.99,40806,14.31,72636.0,-1.93,-3.23,-3.07,0,*57
1494327901.21,40807,14.25,72632.3,-1.95,-3.35,-3.03,0,*53
1494327902.44,40808,14.25,72634.3,-1.95,-3.35,-3.03,0,*5C
1494327903.63,40809,14.25,72638.0,-1.93,-3.23,-2.99,0,*5E
1494327904.83,40810,14.25,72634.0,-1.93,-3.19,-2.99,0,*5F
1494327906.04,40811,14.25,72634.5,-1.95,-3.23,-2.91,0,*59
1494327907.23,40812,14.25,72634.8,-1.93,-3.19,-2.87,0,*52
1494327908.42,40813,14.25,72636.0,-1.93,-3.11,-2.87,0,*5B
1494327909.62,40814,14.31,72636.0,-1.93,-3.11,-2.87,0,*5C
1494327910.81,40815,14.25,72634.5,-1.93,-3.11,-2.87,0,*5D
1494327912.0,40816,14.25,72634.8,-1.93,-3.07,-2.87,0,*59
1494327913.2,40817,14.25,72636.0,-1.93,-3.11,-2.87,0,*5F
1494327914.39,40818,14.25,72634.8,-1.93,-2.99,-2.87,0,*51
1494327915.59,40819,14.25,72636.8,-1.93,-2.99,-2.95,0,*53
1494327916.78,40820,14.25,72634.0,-1.93,-3.07,-2.87,0,*5C
1494327917.97,40821,14.25,72634.8,-1.93,-3.07,-2.87,0,*5D
1494327919.19,40822,14.25,72636.0,-1.91,-3.11,-2.95,0,*58
1494327920.39,40823,14.25,72634.5,-1.93,-3.19,-2.95,0,*53
1494327921.58,40824,14.31,72638.3,-1.93,-3.11,-2.99,0,*50
1494327922.78,40825,14.31,72636.5,-1.93,-3.19,-2.95,0,*55
1494327924.01,40826,14.31,72636.8,-1.91,-3.11,-2.95,0,*5C
1494327925.2,40827,14.31,72636.8,-1.93,-3.19,-2.87,0,*54
1494327926.4,40828,14.25,72636.0,-1.93,-3.19,-2.95,0,*58
1494327927.59,40829,14.25,72634.5,-1.93,-3.11,-2.95,0,*51
1494327928.79,40830,14.31,72636.8,-1.93,-3.11,-2.95,0,*59
1494327930.01,40831,14.31,72638.8,-1.91,-3.11,-2.95,0,*5A
1494327931.21,40832,14.25,72634.5,-1.93,-3.19,-2.99,0,*5F
1494327932.41,40833,14.31,72638.3,-1.93,-3.07,-2.95,0,*5D
1494327933.6,40834,14.31,72638.3,-1.93,-3.11,-2.95,0,*5D
1494327934.8,40835,14.25,72632.0,-1.93,-3.11,-2.87,0,*5F
1494327935.99,40836,14.25,72632.8,-1.93,-3.11,-2.87,0,*5C
1494327937.19,40837,14.31,72636.5,-1.93,-3.07,-2.95,0,*59
1494327938.38,40838,14.25,72634.8,-1.93,-3.07,-2.87,0,*55
1494327939.6,40839,14.31,72638.3,-1.95,-3.11,-2.99,0,*5A
1494327940.82,40840,14.25,72636.0,-1.95,-3.11,-2.91,0,*5C
1494327942.02,40841,14.31,72638.5,-1.93,-3.07,-2.95,0,*58
1494327943.21,40842,14.31,72638.5,-1.93,-3.07,-2.95,0,*5B
1494327944.44,40843,14.31,72638.3,-1.91,-3.11,-2.99,0,*53
1494327945.66,40844,14.31,72634.5,-1.95,-3.15,-2.99,0,*54
1494327946.89,40845,14.31,72636.8,-1.95,-3.15,-2.99,0,*55
1494327948.08,40846,14.25,72632.5,-1.97,-3.15,-2.99,0,*54
1494327949.28,40847,14.31,72638.0,-1.93,-3.19,-2.95,0,*51
1494327950.48,40848,14.25,72634.3,-1.93,-3.19,-2.99,0,*52
1494327951.67,40849,14.31,72638.3,-1.93,-3.11,-2.99,0,*5B
1494327952.87,40850,14.31,72638.5,-1.93,-3.19,-2.95,0,*57
1494327954.06,40851,14.25,72632.5,-1.93,-3.11,-2.87,0,*5D
1494327955.29,40852,14.31,72636.5,-1.95,-3.15,-2.99,0,*53
1494327956.51,40853,14.31,72636.8,-1.95,-3.23,-2.99,0,*57
1494327957.72,40854,14.31,72636.3,-1.95,-3.23,-3.11,0,*51
1494327958.94,40855,14.31,72638.8,-1.95,-3.23,-2.99,0,*51
1494327960.16,40856,14.31,72636.5,-1.95,-3.23,-3.03,0,*50
1494327961.35,40857,14.25,72634.8,-1.97,-3.15,-3.11,0,*55
1494327962.57,40858,14.25,72634.3,-1.95,-3.23,-3.03,0,*5E
1494327963.79,40859,14.31,72638.3,-1.95,-3.23,-3.03,0,*5F
1494327965.0,40860,14.31,72634.3,-1.95,-3.23,-3.03,0,*55
1494327966.23,40861,14.25,72634.3,-1.95,-3.27,-3.11,0,*53
1494327967.41,40862,14.31,72634.3,-1.97,-3.23,-3.11,0,*56
1494327968.63,40863,14.25,72632.3,-1.95,-3.23,-3.03,0,*56
1494327969.85,40864,14.25,72632.8,-1.95,-3.15,-2.99,0,*56
1494327971.05,40865,14.31,72636.0,-1.97,-3.15,-3.03,0,*57
1494327972.24,40866,14.31,72638.5,-1.97,-3.15,-3.11,0,*57
1494327973.44,40867,14.31,72636.0,-1.97,-3.15,-2.99,0,*57
1494327974.65,40868,14.31,72636.3,-1.95,-3.23,-3.11,0,*5E
1494327975.87,40869,14.31,72634.8,-1.95,-3.23,-2.99,0,*5E
1494327977.07,40870,14.31,72638.0,-1.97,-3.15,-2.99,0,*51
1494327978.29,40871,14.31,72638.5,-1.95,-3.15,-3.03,0,*50
1494327979.48,40872,14.31,72634.3,-1.97,-3.15,-3.03,0,*51
1494327980.67,40873,14.31,72634.5,-1.97,-3.23,-3.03,0,*55
1494327981.86,40874,14.31,72632.5,-1.97,-3.23,-3.11,0,*51
1494327983.04,40875,14.25,72634.3,-1.97,-3.23,-3.11,0,*50
1494327984.24,40876,14.25,72632.3,-1.97,-3.15,-3.11,0,*56
1494327985.45,40877,14.31,72638.8,-1.95,-3.23,-3.03,0,*53
1494327986.64,40878,14.31,72634.3,-1.97,-3.23,-3.03,0,*5E
1494327987.86,40879,14.31,72634.3,-1.99,-3.31,-3.07,0,*56
1494327989.08,40880,14.31,72638.3,-1.99,-3.31,-3.15,0,*53
1494327990.3,40881,14.31,72634.3,-1.99,-3.31,-3.15,0,*52
1494327991.49,40882,14.31,72636.3,-2.01,-3.39,-3.19,0,*57
1494327992.71,40883,14.31,72636.3,-1.99,-3.31,-3.19,0,*5C
1494327993.94,40884,14.31,72638.5,-1.99,-3.31,-3.27,0,*56
1494327995.16,40885,14.31,72638.8,-1.99,-3.39,-3.19,0,*52
1494327996.38,40886,14.31,72636.8,-1.99,-3.39,-3.19,0,*51
1494327997.6,40887,14.31,72636.3,-1.99,-3.39,-3.19,0,*50
1494327998.82,40888,14.31,72636.8,-1.99,-3.39,-3.27,0,*52
1494328000.04,40889,14.31,72638.5,-1.99,-3.31,-3.19,0,*56
1494328001.25,40890,14.31,72636.5,-2.01,-3.43,-3.19,0,*59
1494328002.45,40891,14.31,72638.3,-2.01,-3.39,-3.19,0,*55
1494328003.64,40892,14.31,72638.8,-2.01,-3.39,-3.27,0,*5B
1494328004.84,40893,14.31,72640.8,-2.01,-3.39,-3.19,0,*57
1494328006.06,40894,14.31,72638.0,-1.99,-3.39,-3.19,0,*52
1494328007.27,40895,14.31,72638.3,-1.99,-3.39,-3.15,0,*5F
1494328008.49,40896,14.31,72636.5,-1.99,-3.31,-3.19,0,*58
1494328009.69,40897,14.31,72638.3,-2.01,-3.31,-3.19,0,*5B
1494328010.9,40898,14.31,72638.8,-1.99,-3.31,-3.15,0,*5A
1494328012.1,40899,14.31,72638.0,-2.01,-3.31,-3.15,0,*59
1494328013.29,40900,14.31,72636.8,-2.01,-3.31,-3.15,0,*58
1494328014.48,40901,14.31,72638.0,-2.01,-3.31,-3.15,0,*59
1494328015.67,40902,14.31,72634.5,-2.01,-3.31,-3.15,0,*5A
1494328016.87,40903,14.31,72636.3,-2.01,-3.31,-3.07,0,*58
1494328018.07,40904,14.31,72634.8,-2.01,-3.31,-3.07,0,*5F
1494328019.26,40905,14.31,72638.8,-2.01,-3.31,-3.07,0,*5E
1494328020.46,40906,14.31,72634.0,-2.05,-3.35,-3.11,0,*5A
1494328021.66,40907,14.31,72632.8,-2.05,-3.35,-3.11,0,*5B
1494328022.88,40908,14.31,72634.3,-2.07,-3.35,-3.19,0,*5E
1494328024.11,40909,14.31,72634.3,-2.07,-3.35,-3.11,0,*57
1494328025.31,40910,14.31,72636.0,-2.05,-3.35,-3.11,0,*5D
1494328026.51,40911,14.31,72632.8,-2.05,-3.35,-3.19,0,*54
1494328027.7,40912,14.31,72638.0,-2.05,-3.31,-3.11,0,*5B
1494328028.9,40913,14.31,72634.8,-2.05,-3.31,-3.11,0,*5A
1494328030.1,40914,14.31,72632.0,-2.05,-3.31,-3.07,0,*5A
1494328031.3,40915,14.31,72628.8,-2.01,-3.27,-2.95,0,*52
1494328032.5,40916,14.31,72632.0,-2.01,-3.19,-2.95,0,*5C
1494328033.7,40917,14.31,72632.8,-2.01,-3.19,-2.95,0,*5D
1494328034.89,40918,14.31,72634.0,-2.01,-3.27,-3.03,0,*51
1494328036.09,40919,14.31,72632.0,-2.01,-3.15,-3.03,0,*51
1494328037.29,40920,14.31,72632.8,-2.01,-3.15,-2.95,0,*55
1494328038.49,40921,14.31,72632.8,-2.01,-3.15,-2.95,0,*54
1494328039.69,40922,14.31,72636.8,-2.05,-3.19,-2.95,0,*5F
1494328040.89,40923,14.31,72634.5,-2.05,-3.19,-2.99,0,*52
1494328042.09,40924,14.31,72636.0,-2.05,-3.19,-2.99,0,*55
1494328043.29,40925,14.31,72636.5,-2.01,-3.15,-2.95,0,*50
1494328044.48,40926,14.31,72632.3,-2.01,-3.15,-2.91,0,*57
1494328045.67,40927,14.31,72634.0,-2.01,-3.07,-2.91,0,*55
1494328046.87,40928,14.31,72634.8,-2.05,-3.19,-2.95,0,*55
1494328048.07,40929,14.31,72632.8,-2.05,-3.11,-2.95,0,*5C
1494328049.29,40930,14.31,72634.5,-1.99,-3.07,-2.91,0,*51
1494328050.48,40931,14.31,72636.8,-2.01,-3.07,-2.91,0,*52
1494328051.66,40932,14.31,72632.0,-2.01,-3.07,-2.91,0,*51
1494328052.85,40933,14.31,72636.8,-2.01,-3.19,-2.91,0,*5F
1494328054.05,40934,14.31,72634.5,-2.01,-3.15,-2.95,0,*50
1494328055.24,40935,14.31,72636.8,-2.01,-3.07,-2.91,0,*56
1494328056.44,40936,14.31,72634.3,-2.05,-3.19,-2.95,0,*5A
1494328057.64,40937,14.31,72632.5,-2.01,-3.15,-3.03,0,*5D
1494328058.83,40938,14.31,72634.3,-2.01,-3.19,-3.03,0,*5E
1494328060.06,40939,14.31,72636.8,-1.99,-3.15,-2.95,0,*5F
1494328061.28,40940,14.31,72636.0,-1.99,-3.15,-2.95,0,*51
1494328062.5,40941,14.31,72634.5,-1.99,-3.19,-3.03,0,*52
1494328063.7,40942,14.31,72636.0,-2.01,-3.15,-2.95,0,*51
1494328064.9,40943,14.31,72634.8,-2.01,-3.15,-3.03,0,*5E
1494328066.1,40944,14.31,72632.3,-2.01,-3.15,-2.95,0,*57
1494328067.29,40945,14.31,72634.3,-2.01,-3.19,-2.95,0,*5A
1494328068.49,40946,14.31,72636.0,-2.01,-3.19,-3.03,0,*57
1494328069.68,40947,14.31,72636.8,-2.01,-3.19,-2.95,0,*58
1494328070.88,40948,14.31,72632.3,-2.01,-3.15,-3.03,0,*55
1494328072.08,40949,14.31,72632.8,-2.01,-3.15,-2.95,0,*5A
1494328073.28,40950,14.31,72634.0,-2.01,-3.19,-2.95,0,*5E
1494328074.47,40951,14.31,72632.5,-2.01,-3.19,-2.95,0,*5F
1494328075.66,40952,14.31,72632.8,-2.01,-3.19,-3.07,0,*56
1494328076.86,40953,14.31,72634.8,-2.01,-3.19,-3.07,0,*57
1494328078.05,40954,14.31,72636.5,-2.01,-3.19,-3.07,0,*50
1494328079.24,40955,14.31,72634.3,-2.05,-3.23,-3.07,0,*5C
1494328080.44,40956,14.31,72634.5,-2.05,-3.23,-3.07,0,*5F
1494328081.63,40957,14.31,72636.0,-2.01,-3.19,-3.03,0,*57
1494328082.83,40958,14.31,72634.8,-2.01,-3.27,-3.03,0,*55
1494328084.03,40959,14.31,72632.3,-2.01,-3.27,-2.95,0,*5A
1494328085.22,40960,14.31,72636.3,-2.01,-3.19,-3.03,0,*53
1494328086.41,40961,14.31,72634.3,-2.01,-3.19,-3.03,0,*52
1494328087.61,40962,14.31,72632.8,-2.01,-3.19,-3.07,0,*55
1494328088.8,40963,14.31,72636.0,-2.01,-3.27,-3.03,0,*5D
1494328090.0,40964,14.31,72638.5,-2.05,-3.23,-3.07,0,*5E
1494328091.2,40965,14.31,72636.8,-2.05,-3.31,-3.11,0,*5B
1494328092.4,40966,14.31,72634.5,-2.05,-3.31,-3.11,0,*58
1494328093.62,40967,14.31,72638.0,-2.07,-3.31,-3.19,0,*53
1494328094.84,40968,14.31,72636.5,-2.07,-3.31,-3.11,0,*54
1494328096.07,40969,14.31,72632.8,-2.07,-3.35,-3.11,0,*51
1494328097.27,40970,14.31,72638.3,-2.05,-3.35,-3.11,0,*5B
1494328098.47,40971,14.31,72638.3,-2.05,-3.35,-3.11,0,*5A
1494328099.69,40972,14.31,72632.5,-2.07,-3.35,-3.19,0,*53
1494328100.94,40973,14.31,72634.0,-2.07,-3.43,-3.19,0,*53
1494328102.18,40974,14.31,72634.5,-2.07,-3.43,-3.19,0,*54